Location: Unspecified
(49.9820°N, 20.4363°E)
Time: 05:53:29
(UTC+02:00)

Courier 1B - All Passes

Search period start: 14 May 2026 00:00
Search period end: 24 May 2026 00:00
Orbit: 962 x 1209 km, 28.3° (Epoch: 13 May)

Date Brightness Start Highest point End Pass type
(mag) Time Alt. Az. Time Alt. Az. Time Alt. Az.
14 May - 11:25:01 10° SSW 11:28:26 13° S 11:31:53 10° SSE daylight
14 May - 13:18:36 10° SSW 13:21:05 12° SSW 13:23:35 10° S daylight
15 May - 10:31:51 10° SSW 10:34:48 13° S 10:37:47 10° SSE daylight
15 May - 12:24:21 10° SSW 12:27:27 13° S 12:30:36 10° SSE daylight
16 May - 09:39:14 10° S 09:41:12 11° SSE 09:43:12 10° SSE daylight
16 May - 11:30:29 10° SSW 11:33:49 13° S 11:37:12 10° SSE daylight
17 May - 10:36:56 10° SSW 10:40:12 13° S 10:43:30 10° SSE daylight
17 May - 12:31:40 10° SSW 12:32:50 10° SSW 12:33:59 10° S daylight
18 May - 09:43:40 10° SSW 09:46:35 13° S 09:49:32 10° SSE daylight
18 May - 11:36:50 10° SSW 11:39:13 12° S 11:41:36 10° S daylight
19 May - 08:50:51 10° S 08:53:00 11° S 08:55:10 10° SSE daylight
19 May - 10:42:49 10° SSW 10:45:36 12° S 10:48:25 10° SSE daylight
20 May - 09:49:09 10° SSW 09:51:59 12° S 09:54:54 10° SSE daylight
21 May - 08:55:48 10° SSW 08:58:25 12° S 09:01:04 10° SSE daylight
22 May - 08:02:50 10° S 08:04:51 11° S 08:06:53 10° SSE daylight
22 May - 09:55:40 10° SSW 09:57:25 11° S 09:59:11 10° S daylight
23 May - 09:01:45 10° SSW 09:03:51 11° S 09:05:59 10° SSE daylight
